Location: Faicchio
(41.2833°N, 14.4833°E)
Time: 02:35:17
(UTC+00:00)

Okean 2 Rocket - Pass Details

Date: 15 June 2025
Orbit: 612 x 635 km, 82.5° (Epoch: 06 July)

Event Time Altitude Azimuth Distance (km) Brightness Sun altitude
Rises 00:20:21 0° 353° (N) 2,934 7.6 -22.9°
Reaches altitude 10° 00:22:36 10° 356° (N) 2,018 6.6 -22.8°
Maximum altitude 00:27:05 75° 81° (E) 653 3.1 -22.5°
Enters shadow 00:27:51 58° 146° (SE) 730 3.1 -22.4°
